User: anonymous   Login
Location: Unspecified
(0.0000°N, 0.0000°E)
Time: 18:30:59
(UTC+02:00)
Language:

Cosmos 1898 Rocket - Orbit

View from above orbital plane
View from above orbital plane
View from above satellite
View from above satellite

Ground track
Ground track

The orbit data is extracted from the following two-line orbital elements,

1 18586U 87098B   15149.73875924  .00000089  00000-0  38975-4 0  9998
2 18586 074.0073 235.2158 0019920 109.6787 007.9692 14.36626512439731
Epoch (UTC): 29 May 2015 17:43:48
Eccentricity: 0.0019920
inclination: 74.0073°
perigee height: 755 km
apogee height: 784 km
right ascension of ascending node: 235.2158°
argument of perigee: 109.6787°
revolutions per day: 14.36626512
mean anomaly at epoch: 7.9692°
orbit number at epoch: 43973

The dashed part of the orbit path shows where the satellite is in the earth's shadow,  

DLR